Wind_Speed
17 17 16 16 15 15 14 15 16 16 17 17 19 19 21 22 24 24 26 28 29 28 29 27 26 24 22 21 22 24 25 28 28 25 26 21 14 12 10 8 5 8 8
19 19 17 18 16 15 15 16 16 17 17 17 19 20 21 22 24 25 26 28 29 29 29 27 25 23 21 20 21 21 22 24 26 27 26 23 16 9 8 7 6 8 8
21 21 19 19 18 17 17 17 16 17 18 18 19 21 21 23 24 25 26 27 29 29 29 27 25 23 20 18 18 18 18 21 23 26 25 25 20 14 10 8 8 8 10
22 22 21 20 20 19 19 18 17 17 18 19 20 21 22 23 24 25 26 27 29 30 30 28 26 23 19 17 17 17 15 16 18 21 23 23 22 19 14 10 8 7 8
22 22 20 22 24 22 19 19 19 18 18 19 20 21 22 23 25 25 26 27 28 29 31 30 27 23 19 17 16 16 14 13 15 17 19 21 21 19 16 14 11 8 7
22 21 22 23 25 23 21 21 20 19 20 20 20 21 22 23 25 26 26 26 28 29 29 30 28 23 19 16 15 15 15 14 13 15 17 19 20 20 18 16 13 11 8
21 21 21 23 24 23 23 24 21 20 21 20 21 21 21 23 25 26 27 27 28 29 30 30 28 24 19 16 15 14 14 14 13 13 14 16 16 17 17 16 15 14 12
23 21 21 22 24 24 25 24 22 23 22 21 22 22 22 23 25 25 27 27 28 29 30 29 28 25 20 15 14 13 13 13 12 12 13 14 14 15 17 16 16 16 16
18 21 23 24 26 26 25 24 24 25 23 22 23 23 23 23 25 25 26 27 27 29 30 29 28 25 21 16 14 13 11 11 10 9 10 12 13 14 15 16 16 15 15
22 21 22 24 27 26 25 25 26 27 25 25 24 23 24 23 26 26 26 26 27 27 29 29 28 24 21 17 13 12 10 10 9 8 8 9 11 12 12 13 14 14 14
20 21 22 21 22 23 26 26 26 27 27 26 25 25 25 25 26 26 26 25 26 26 27 29 28 25 21 18 13 12 9 8 7 7 7 7 8 9 10 10 11 12 13
22 21 21 22 23 22 23 25 27 28 27 27 26 25 25 26 27 26 25 25 25 25 25 27 28 25 21 18 14 10 8 6 6 5 6 6 7 7 8 8 9 10 10
25 22 21 22 23 23 24 24 25 27 27 27 26 26 25 28 27 25 25 25 24 23 24 25 26 24 22 19 14 9 8 6 4 3 5 5 5 6 7 8 9 9 10
30 28 26 24 24 25 24 24 25 26 26 27 27 27 26 28 27 25 25 24 24 23 22 23 24 23 21 19 14 8 7 7 5 3 6 7 6 6 7 7 8 9 9
37 35 32 30 28 27 25 26 27 25 27 28 27 28 27 26 25 26 23 23 23 22 21 22 22 22 20 18 14 8 5 7 9 5 9 9 7 6 7 7 8 9 10
44 40 38 37 34 32 31 28 26 27 27 27 29 28 27 26 26 25 23 23 23 21 19 21 20 20 19 16 12 7 3 8 11 12 10 10 9 7 5 6 8 8 8
43 42 43 42 38 37 35 34 31 29 28 29 27 27 27 27 27 25 23 23 22 20 19 19 18 18 18 15 11 6 4 9 13 16 14 10 10 8 4 4 5 6 6
39 39 39 41 43 41 40 37 35 33 31 28 28 27 26 27 27 25 24 23 21 21 19 19 17 16 16 14 11 6 5 10 14 19 17 13 9 7 7 5 4 4 4
35 34 37 39 39 39 39 37 36 35 34 31 28 29 26 25 27 27 24 21 22 22 20 18 17 16 14 14 11 7 7 10 15 19 20 17 13 10 9 8 7 6 5
35 34 33 34 35 37 36 35 35 34 33 32 31 29 30 28 25 25 25 24 23 21 20 18 17 16 14 12 12 10 8 10 14 17 20 21 18 15 13 11 10 9 8
33 33 34 32 30 31 33 33 33 34 33 32 31 31 32 30 27 25 25 25 23 23 21 19 18 16 15 13 11 11 11 11 14 16 18 20 21 19 17 15 13 12 11
31 32 32 33 30 30 31 32 32 34 33 32 31 31 32 31 28 25 26 25 25 25 22 21 19 17 16 15 12 12 12 13 14 15 17 19 21 21 20 18 16 15 14
33 32 31 32 33 31 32 33 34 33 35 35 34 34 34 32 29 28 28 28 27 26 24 22 21 19 18 15 15 13 13 14 15 16 17 18 19 20 21 20 19 17 16
33 33 34 32 33 34 35 35 34 36 36 38 39 38 37 36 32 30 30 30 29 27 25 24 22 21 19 17 16 15 14 15 16 16 17 17 18 19 19 19 19 18 18
34 34 34 36 35 36 37 38 36 37 39 39 39 39 39 36 35 32 33 31 30 28 26 25 24 22 21 19 17 17 16 15 16 17 17 17 17 18 17 18 17 16 16
34 34 35 36 37 38 39 39 38 37 38 42 42 41 40 38 35 33 34 33 32 30 27 26 25 23 22 21 19 18 17 16 16 17 17 17 17 17 16 16 15 15 14
Wind_Direction
275 274 278 282 285 287 289 292 295 297 301 306 309 317 321 325 329 332 333 332 333 332 332 331 327 326 322 328 333 334 336 338 341 344 347 354 345 324 326 314 300 318 291
267 270 274 276 282 283 283 286 291 293 299 303 306 312 318 322 327 330 332 332 332 331 332 331 326 325 320 324 327 333 335 340 343 346 351 357 360 341 308 323 306 283 309
268 269 269 272 276 279 279 280 285 289 295 300 304 309 315 319 324 328 331 331 331 331 330 330 327 325 319 318 320 328 333 343 346 350 353 355 2 3 349 330 331 311 294
266 268 269 269 269 271 276 280 282 285 291 297 302 306 312 316 321 327 329 330 330 331 329 330 329 326 319 314 315 321 330 341 349 356 0 359 2 4 8 351 324 322 311
265 267 267 263 266 269 272 275 280 285 287 293 299 303 309 314 318 325 327 330 329 331 328 330 329 326 319 311 309 317 322 330 345 357 3 8 9 12 12 8 354 326 315
268 269 263 263 265 269 269 271 274 280 284 289 294 300 306 311 316 322 325 329 328 330 329 328 329 327 319 306 301 307 315 324 329 342 350 358 6 11 18 19 14 6 341
275 272 269 264 264 266 265 269 274 274 278 287 290 296 302 308 312 319 322 328 327 328 330 330 328 326 318 303 292 294 307 315 326 336 346 351 2 7 13 22 24 24 21
286 280 273 266 264 263 262 266 270 271 275 281 287 292 299 302 308 315 319 324 325 327 330 331 329 325 319 305 288 285 299 307 321 336 343 350 356 8 7 13 23 25 25
285 280 276 271 264 263 265 265 265 268 273 276 280 289 295 299 303 310 315 320 323 324 328 331 331 325 318 306 286 279 288 302 317 333 344 349 356 5 8 7 10 16 20
289 287 287 286 284 279 272 268 265 268 272 273 279 284 289 295 299 306 311 316 319 323 325 330 331 327 317 307 288 276 277 301 313 333 348 351 354 358 5 6 5 6 9
296 295 293 289 288 286 280 276 273 271 272 274 277 280 286 291 295 302 306 313 315 320 324 328 330 328 321 311 296 274 269 295 306 329 343 354 354 354 357 3 1 1 3
293 293 293 293 289 287 286 281 279 277 276 275 275 278 282 286 290 296 301 307 311 316 321 325 328 327 325 316 302 279 258 266 298 317 329 348 346 346 349 356 359 0 2
286 289 291 292 292 289 287 285 282 281 281 279 277 276 277 280 285 292 295 301 306 312 315 321 324 329 328 321 312 286 249 232 289 286 304 312 314 323 338 349 356 1 1
276 280 281 284 289 293 289 284 284 284 281 279 278 277 274 275 285 287 290 297 300 307 312 317 323 327 328 326 319 296 248 212 223 252 256 275 290 313 327 338 346 353 360
271 271 274 278 281 284 288 289 287 285 284 282 280 278 278 280 280 282 289 291 295 301 308 312 320 324 327 328 323 306 248 199 199 232 247 251 272 298 313 328 342 348 355
271 266 267 270 273 277 282 284 285 284 281 280 282 282 281 280 278 281 284 286 290 296 301 306 315 322 324 326 324 309 240 189 196 220 245 251 252 266 302 330 341 346 344
273 269 262 263 267 271 272 275 278 276 274 277 277 281 281 279 279 279 281 281 284 289 293 298 308 317 319 323 322 305 229 188 196 216 230 245 249 249 273 310 316 328 345
276 272 268 264 264 266 270 271 272 274 272 270 273 273 275 278 281 279 276 279 281 282 286 291 299 308 314 316 313 292 228 196 198 214 222 232 240 241 242 248 267 291 311
281 278 271 267 264 263 265 268 269 271 273 269 266 270 271 272 274 277 277 276 272 276 278 284 290 299 305 308 302 282 236 208 205 213 222 229 236 240 233 234 246 260 279
280 282 279 273 268 265 264 266 266 265 267 266 265 266 268 269 273 275 274 271 271 272 273 276 281 288 292 296 293 278 246 220 215 216 223 231 237 243 246 241 240 249 260
283 281 280 278 272 266 262 262 265 260 261 261 259 261 264 269 271 271 272 271 267 266 268 270 273 278 282 281 282 272 255 235 225 223 223 231 237 242 245 250 250 252 259
289 285 280 279 275 267 265 262 265 259 257 259 256 257 262 267 270 271 269 267 266 263 262 264 267 269 273 273 268 265 256 246 235 230 228 230 237 241 245 249 253 256 260
294 291 285 279 275 270 263 262 262 262 254 251 252 257 262 265 267 266 267 266 263 262 260 259 260 262 265 265 263 258 254 249 242 237 235 234 238 243 246 249 252 255 259
291 293 292 285 277 271 267 262 259 258 257 252 252 254 258 262 261 261 262 265 262 260 259 256 256 257 260 261 258 254 250 252 247 241 238 238 241 244 247 250 253 257 258
291 289 287 286 279 272 267 263 261 258 255 253 251 251 251 251 255 256 259 261 259 256 254 253 253 254 256 257 254 252 248 248 250 247 242 240 242 246 251 255 256 256 260
286 285 284 280 281 275 269 267 262 259 257 254 250 247 246 246 246 248 253 258 259 255 249 249 250 251 251 253 252 249 250 247 249 251 244 242 243 247 250 253 258 260 261
Height
3124 3123 3122 3121 3120 3119 3117 3115 3113 3111 3109 3106 3103 3100 3096 3092 3088 3083 3078 3073 3067 3062 3056 3050 3044 3040 3036 3032 3027 3022 3017 3010 3003 2998 2992 2988 2985 2982 2979 2977 2975 2972 2972
3118 3118 3117 3116 3115 3114 3112 3110 3108 3106 3104 3102 3099 3096 3092 3088 3084 3080 3075 3069 3063 3058 3052 3047 3041 3036 3032 3029 3025 3021 3016 3009 3003 2996 2991 2987 2984 2981 2979 2976 2973 2972 2969
3112 3112 3111 3111 3110 3109 3108 3105 3103 3101 3099 3097 3095 3091 3088 3084 3080 3076 3071 3066 3060 3054 3048 3043 3038 3033 3029 3026 3023 3020 3015 3009 3003 2997 2990 2985 2982 2979 2976 2975 2973 2969 2968
3105 3105 3106 3105 3104 3103 3102 3101 3099 3096 3094 3093 3090 3087 3084 3080 3076 3072 3067 3062 3056 3050 3045 3039 3034 3029 3025 3022 3020 3017 3013 3009 3003 2999 2993 2987 2982 2977 2975 2974 2973 2971 2968
3099 3098 3099 3099 3098 3097 3097 3095 3094 3092 3089 3087 3085 3082 3079 3076 3072 3068 3064 3059 3053 3047 3041 3035 3030 3025 3021 3018 3016 3014 3012 3008 3003 2999 2995 2990 2985 2980 2976 2973 2971 2971 2970
3093 3092 3092 3092 3091 3092 3091 3089 3088 3087 3084 3082 3080 3077 3075 3071 3067 3063 3059 3055 3050 3044 3038 3032 3026 3022 3018 3015 3013 3011 3009 3006 3003 2999 2996 2992 2988 2983 2979 2975 2971 2970 2969
3088 3087 3086 3085 3085 3084 3084 3083 3082 3081 3078 3077 3074 3072 3069 3066 3062 3059 3055 3050 3046 3040 3034 3029 3023 3018 3015 3012 3010 3009 3007 3005 3002 2999 2996 2993 2990 2985 2982 2978 2975 2971 2969
3084 3082 3080 3079 3078 3077 3076 3076 3076 3074 3073 3071 3069 3066 3064 3061 3057 3054 3050 3046 3041 3036 3031 3025 3020 3015 3011 3008 3006 3005 3005 3003 3001 2999 2996 2994 2991 2987 2983 2980 2977 2973 2970
3077 3076 3075 3073 3071 3070 3069 3069 3068 3067 3066 3065 3063 3061 3059 3056 3052 3049 3045 3042 3037 3032 3027 3022 3017 3012 3008 3004 3003 3002 3002 3002 3001 2999 2997 2994 2991 2988 2985 2982 2979 2976 2973
3073 3071 3069 3067 3066 3065 3063 3062 3061 3060 3059 3058 3057 3055 3052 3051 3046 3044 3040 3037 3033 3028 3023 3019 3014 3009 3004 3001 2999 2999 2999 3000 3000 2999 2997 2995 2992 2989 2986 2984 2981 2978 2975
3068 3067 3064 3061 3060 3059 3057 3056 3055 3053 3052 3052 3050 3049 3046 3044 3041 3038 3035 3032 3029 3024 3020 3015 3011 3006 3002 2998 2996 2996 2997 2998 2999 2998 2997 2995 2993 2990 2987 2985 2983 2980 2977
3063 3061 3058 3057 3054 3052 3051 3050 3048 3046 3045 3044 3043 3042 3040 3038 3035 3033 3030 3027 3024 3020 3016 3012 3007 3003 2999 2995 2993 2994 2995 2996 2997 2997 2996 2994 2992 2990 2988 2986 2984 2982 2979
3056 3054 3052 3050 3048 3046 3044 3043 3041 3039 3039 3038 3036 3035 3034 3031 3028 3027 3024 3022 3019 3016 3012 3009 3005 3000 2996 2993 2991 2991 2992 2994 2995 2996 2994 2992 2990 2988 2987 2986 2985 2983 2981
3047 3046 3045 3043 3042 3040 3038 3036 3034 3033 3031 3030 3029 3028 3026 3024 3022 3020 3018 3016 3014 3011 3009 3006 3002 2997 2994 2990 2988 2988 2989 2991 2992 2993 2991 2990 2989 2989 2988 2986 2985 2983 2982
3035 3036 3035 3035 3034 3033 3031 3029 3028 3026 3025 3023 3022 3021 3019 3018 3016 3013 3012 3010 3008 3007 3005 3002 2999 2995 2991 2988 2986 2985 2986 2988 2989 2989 2987 2987 2988 2988 2987 2987 2986 2985 2983
3025 3025 3024 3023 3024 3023 3023 3022 3019 3019 3017 3015 3015 3014 3013 3011 3009 3007 3006 3005 3003 3001 3000 2998 2995 2992 2988 2985 2983 2983 2983 2984 2985 2985 2984 2985 2985 2986 2986 2986 2986 2985 2983
3010 3013 3012 3010 3011 3011 3012 3012 3011 3008 3007 3007 3005 3006 3006 3005 3003 3001 3000 2999 2997 2996 2995 2993 2990 2988 2985 2983 2981 2980 2980 2980 2981 2981 2982 2982 2982 2983 2984 2984 2983 2982 2982
2998 2999 2999 2999 3000 3000 3000 3001 3001 3001 2998 2999 2998 2996 2996 2997 2996 2995 2993 2992 2992 2990 2989 2988 2986 2984 2982 2980 2978 2977 2976 2977 2977 2977 2978 2979 2980 2981 2981 2981 2980 2980 2979
2987 2987 2986 2986 2987 2987 2988 2989 2990 2991 2991 2991 2989 2989 2988 2987 2987 2987 2986 2986 2985 2984 2983 2982 2981 2979 2977 2976 2975 2974 2973 2973 2972 2973 2974 2976 2977 2978 2977 2978 2978 2978 2978
2977 2976 2975 2974 2975 2976 2977 2978 2979 2980 2981 2982 2982 2981 2979 2978 2979 2979 2979 2978 2977 2977 2977 2976 2975 2974 2973 2972 2971 2970 2969 2969 2969 2968 2970 2972 2973 2974 2975 2975 2975 2975 2975
2968 2967 2965 2964 2964 2964 2965 2966 2967 2968 2970 2970 2972 2971 2969 2971 2971 2971 2971 2971 2970 2970 2970 2970 2970 2969 2968 2967 2966 2966 2966 2965 2965 2965 2966 2967 2968 2970 2971 2972 2972 2972 2972
2958 2957 2956 2954 2954 2954 2955 2955 2955 2957 2959 2961 2962 2961 2960 2961 2963 2963 2962 2963 2963 2962 2962 2963 2963 2963 2962 2962 2961 2961 2961 2961 2961 2962 2962 2963 2964 2965 2966 2968 2969 2969 2969
2949 2947 2946 2945 2944 2944 2944 2944 2945 2945 2947 2948 2950 2950 2950 2951 2954 2954 2954 2954 2954 2955 2955 2955 2956 2956 2956 2956 2956 2956 2956 2957 2957 2957 2958 2959 2959 2960 2962 2963 2964 2965 2965
2939 2937 2936 2935 2933 2932 2932 2932 2933 2934 2935 2936 2937 2939 2939 2942 2943 2944 2944 2945 2946 2946 2947 2948 2949 2949 2950 2950 2950 2950 2951 2952 2952 2953 2954 2955 2955 2956 2957 2958 2959 2960 2961
2929 2927 2925 2923 2922 2920 2920 2920 2920 2921 2921 2922 2924 2926 2927 2927 2932 2933 2934 2936 2937 2937 2939 2941 2942 2943 2943 2944 2944 2944 2944 2946 2947 2948 2949 2950 2951 2951 2952 2953 2954 2954 2955
2919 2917 2914 2912 2910 2908 2907 2907 2907 2907 2908 2909 2910 2912 2913 2915 2918 2921 2923 2926 2928 2929 2929 2932 2934 2935 2936 2937 2938 2938 2939 2939 2941 2942 2943 2944 2945 2947 2947 2948 2949 2950 2950